Home > Weather > Tilburg > Past weeks

Flag for Netherlands Weather for the Past 2 Weeks in Tilburg, Netherlands

Now
34 °F

Light rain. Mostly cloudy.


Feels Like: 28 °F
Forecast: 29 / 38 °F
Wind: 7 mph from North

Location: Gilze-Rijen

Current Time: Feb 14, 2016 at 8:15:39 AM

Latest Report: Feb 14, 2016 at 7:55 AM


Visibility: 1 mi

Pressure: 29.12 "Hg

Humidity: 93%

Dew point: 32 °F

Location of TilburgLocation

Historic Weather in Tilburg — Graph

°F

Tilburg Temperature Yesterday

Maximum temperature yesterday: 41 °F (at 3:25 PM)
Minimum temperature yesterday: 28 °F (at 1:55 AM)
Average temperature yesterday: 35 °F

High & Low Weather Summary for the Past Weeks

 TemperatureHumidityPressure
High54 °F (Jan 31, 9:25 PM)100% (Jan 31, 1:55 PM)30.30 "Hg (Jan 31, 1:55 PM)
Low28 °F (Feb 13, 1:55 AM)58% (Feb 7, 7:25 PM)28.91 "Hg (Feb 9, 2:25 PM)
Average44 °F84%29.65 "Hg
* Reported Jan 30 7:25 AM — Feb 14 7:04 AM, Tilburg, Weather by CustomWeather, © 2016

Note: Actual official high and low records may vary slightly from our data, if they occured in-between our weather recording intervals... More about our weather records

Advertising

Tilburg Weather History for the Previous 24 Hours

 ConditionsComfort  
Time TempWeatherWind HumidityBarometerVisibility
7:04 AM
Sun, Feb 14
34 °FLight snow. Mostly cloudy.6 mph93%29.12 "Hg1 mi
6:55 AM34 °FLight snow. Mostly cloudy.7 mph93%29.12 "Hg1 mi
6:25 AM34 °FSprinkles. Overcast.7 mph93%29.09 "Hg1 mi
5:55 AM34 °FDrizzle. Mostly cloudy.8 mph100%29.09 "Hg1 mi
5:25 AM34 °FLight rain. Mostly cloudy.9 mph100%29.09 "Hg2 mi
4:55 AM34 °FLight rain. Mostly cloudy.9 mph100%29.09 "Hg2 mi
4:25 AM36 °FLight rain. Mostly cloudy.9 mph93%29.06 "Hg2 mi
3:55 AM36 °FDrizzle. Mostly cloudy.9 mph93%29.06 "Hg2 mi
2:55 AM36 °FDrizzle. Mostly cloudy.9 mph100%29.06 "Hg2 mi
2:25 AM37 °FDrizzle. Mostly cloudy.9 mph93%29.06 "Hg2 mi
1:59 AM37 °FDrizzle. Mostly cloudy.10 mph93%29.06 "Hg3 mi
1:55 AM37 °FLight rain. Mostly cloudy.10 mph93%29.06 "Hg3 mi
1:25 AM37 °FLight rain. Mostly cloudy.9 mph93%29.06 "Hg2 mi
12:55 AM37 °FDrizzle. Low clouds.10 mph93%29.06 "Hg4 mi
12:25 AM37 °FFog.9 mph93%29.06 "Hg4 mi
11:59 PM
Sat, Feb 13
37 °FFog.10 mph93%29.03 "Hg4 mi
11:55 PM37 °FPassing clouds.9 mph93%29.03 "Hg4 mi
11:25 PM37 °FDrizzle. Low clouds.10 mph93%29.03 "Hg4 mi
10:25 PM37 °FPartly cloudy.12 mph93%29.03 "Hg4 mi
9:55 PM37 °FFog.12 mph93%29.03 "Hg4 mi
9:25 PM37 °FDrizzle. Mostly cloudy.14 mph93%29.03 "Hg3 mi
8:55 PM37 °FDrizzle. Mostly cloudy.12 mph93%29.03 "Hg2 mi
8:25 PM37 °FDrizzle. Mostly cloudy.10 mph93%29.03 "Hg5 mi
7:55 PM37 °FDrizzle. Overcast.13 mph93%29.06 "HgN/A
7:25 PM37 °FPartly cloudy.9 mph93%29.06 "HgN/A
6:55 PM37 °FDrizzle. Mostly cloudy.13 mph93%29.06 "HgN/A
6:25 PM39 °FDrizzle. Mostly cloudy.14 mph81%29.06 "HgN/A
5:55 PM39 °FDrizzle. Overcast.14 mph81%29.06 "HgN/A
5:25 PM39 °FOvercast.15 mph81%29.06 "HgN/A
4:55 PM39 °FOvercast.13 mph81%29.06 "HgN/A
4:25 PM39 °FScattered clouds.16 mph75%29.09 "HgN/A
3:55 PM39 °FPassing clouds.13 mph81%29.09 "HgN/A
3:25 PM41 °FScattered clouds.12 mph76%29.09 "HgN/A
2:55 PM39 °FPassing clouds.13 mph81%29.12 "HgN/A
2:25 PM39 °FScattered clouds.13 mph75%29.12 "HgN/A
1:55 PM39 °FPartly sunny.12 mph81%29.15 "HgN/A
1:25 PM39 °FPartly sunny.10 mph75%29.15 "HgN/A
12:55 PM37 °FPartly sunny.9 mph81%29.18 "HgN/A
12:25 PM37 °FOvercast.8 mph81%29.18 "HgN/A
11:55 AM37 °FOvercast.9 mph81%29.21 "HgN/A
11:25 AM36 °FOvercast.8 mph87%29.21 "HgN/A
10:55 AM34 °FOvercast.7 mph87%29.24 "HgN/A
10:25 AM34 °FOvercast.8 mph87%29.24 "HgN/A
9:55 AM32 °FPassing clouds.8 mph93%29.24 "HgN/A
9:25 AM32 °FChilly.8 mph87%29.27 "HgN/A
8:55 AM28 °FChilly.7 mph93%29.30 "HgN/A
8:25 AM30 °FIce fog.6 mph86%29.30 "Hg6 mi
Weather by CustomWeather, © 2016

See weather overviewHow to use our weather pages